ORBCOMM FM26 [-] (25480 NORAD) Tracking and Keplerian Element Data

This shows tracking and keplerian element data for the satellite.

Feedback or suggestion? Click here.




ElementValue
Catalog25480
NameORBCOMM FM26 [-]
Epoch Orbit30275
Epoch Day238.79174254
Epoch Year2023
RAAN142.1877
Inclination45.0073
Eccentricity0.0004752
Argument of Perigee216.6605
Mean Anonmoly143.3917
Mean Motion14.34161587
Decay Rate8.92E-06
L11 25480U 98053F 23238.79174254 .00000892 00000+0 36555-3 0 9996
L22 25480 45.0073 142.1877 0004752 216.6605 143.3917 14.34161587302759



Live tracking and technical data element details for ORBCOMM FM26 [-] (NORAD 25480). ORBCOMM FM26 [-] can be tracked NOW for your location showing map with azimuth and elevation plus other details from your city location.







IsCatalogInMostPopularTable: catalog: 25480, numindb: 354
Update: records affected: 1



GetName: 25480 ORBCOMM FM26 [-]

Hit Count: updated at: Fri, 16 May 2025 11:42:35 GMT